Time,TemperatureF,DewpointF,PressureIn,WindDirection,WindDirectionDegrees,WindSpeedMPH,WindSpeedGustMPH,Humidity,HourlyPrecipIn,Conditions,Clouds,dailyrainin,SoftwareType,DateUTC
2013-04-22 00:01:00,51.4,30.8,29.62,East,83,4.0,5.8,45,0.00,,---,0.00,VWS V14.00,2013-04-22 05:01:00,
2013-04-22 00:06:00,51.4,30.8,29.62,East,82,4.0,5.8,45,0.00,,---,0.00,VWS V14.00,2013-04-22 05:06:00,
2013-04-22 00:11:00,51.3,30.7,29.62,East,92,5.4,7.4,45,0.00,,---,0.00,VWS V14.00,2013-04-22 05:11:00,
2013-04-22 00:16:00,51.3,30.7,29.62,East,84,5.4,7.4,45,0.00,,---,0.00,VWS V14.00,2013-04-22 05:16:00,
2013-04-22 00:21:00,51.1,31.0,29.62,ENE,73,4.0,5.8,46,0.00,,---,0.00,VWS V14.00,2013-04-22 05:21:00,
2013-04-22 00:26:00,51.1,31.0,29.62,ENE,69,3.4,5.0,46,0.00,,---,0.00,VWS V14.00,2013-04-22 05:26:00,
2013-04-22 00:31:00,50.9,30.9,29.62,East,83,4.7,6.6,46,0.00,,---,0.00,VWS V14.00,2013-04-22 05:31:00,
2013-04-22 00:36:00,50.7,30.7,29.62,East,80,0.0,1.0,46,0.00,,---,0.00,VWS V14.00,2013-04-22 05:36:00,
2013-04-22 00:41:00,50.7,30.7,29.62,East,80,3.4,5.0,46,0.00,,---,0.00,VWS V14.00,2013-04-22 05:41:00,
2013-04-22 00:46:00,50.5,30.5,29.62,ENE,76,5.4,7.4,46,0.00,,---,0.43,VWS V14.00,2013-04-22 05:46:00,
2013-04-22 00:51:00,50.5,30.5,29.62,East,80,4.0,5.8,46,0.00,,---,0.00,VWS V14.00,2013-04-22 05:51:00,
2013-04-22 00:56:00,50.5,30.5,29.62,ENE,68,0.0,5.8,46,0.00,,---,0.00,VWS V14.00,2013-04-22 05:56:00,
2013-04-22 01:01:00,50.4,30.4,29.62,ENE,69,0.0,1.0,46,0.00,,---,0.00,VWS V14.00,2013-04-22 06:01:00,
2013-04-22 01:06:00,50.2,30.2,29.62,ENE,76,4.0,5.8,46,0.00,,---,0.00,VWS V14.00,2013-04-22 06:06:00,
2013-04-22 01:11:00,50.2,30.8,29.62,ENE,76,4.0,7.4,47,0.00,,---,0.00,VWS V14.00,2013-04-22 06:11:00,
2013-04-22 01:16:00,50.2,30.2,29.62,East,90,3.4,6.6,46,0.00,,---,0.00,VWS V14.00,2013-04-22 06:16:00,
2013-04-22 01:21:00,50.2,30.8,29.62,East,89,4.7,7.4,47,0.00,,---,0.00,VWS V14.00,2013-04-22 06:21:00,
2013-04-22 01:26:00,50.2,30.2,29.62,East,81,4.0,5.8,46,0.00,,---,0.00,VWS V14.00,2013-04-22 06:26:00,
2013-04-22 01:31:00,50.2,30.2,29.62,East,88,5.4,7.4,46,0.00,,---,0.00,VWS V14.00,2013-04-22 06:31:00,
2013-04-22 01:36:00,50.0,30.6,29.62,East,84,5.4,7.4,47,0.00,,---,0.00,VWS V14.00,2013-04-22 06:36:00,
2013-04-22 01:41:00,50.0,30.6,29.62,East,90,4.0,6.6,47,0.00,,---,0.00,VWS V14.00,2013-04-22 06:41:00,
2013-04-22 01:46:00,50.0,30.6,29.59,East,87,4.0,6.6,47,0.00,,---,0.00,VWS V14.00,2013-04-22 06:46:00,
2013-04-22 01:52:00,50.2,30.8,29.59,East,99,4.0,5.8,47,0.00,,---,0.00,VWS V14.00,2013-04-22 06:52:00,
2013-04-22 01:57:00,50.0,30.6,29.59,East,93,0.0,1.0,47,0.00,,---,0.00,VWS V14.00,2013-04-22 06:57:00,
2013-04-22 02:02:00,50.0,30.6,29.59,ENE,71,0.0,5.0,47,0.00,,---,0.00,VWS V14.00,2013-04-22 07:02:00,
2013-04-22 02:07:00,50.0,30.6,29.59,East,101,4.7,6.6,47,0.00,,---,0.00,VWS V14.00,2013-04-22 07:07:00,
2013-04-22 02:12:00,50.0,30.6,29.59,East,85,4.0,6.6,47,0.00,,---,0.00,VWS V14.00,2013-04-22 07:12:00,
2013-04-22 02:17:00,49.8,30.9,29.59,East,98,4.0,5.8,48,0.00,,---,0.00,VWS V14.00,2013-04-22 07:17:00,
2013-04-22 02:22:00,49.8,30.9,29.59,East,101,4.0,5.8,48,0.00,,---,0.00,VWS V14.00,2013-04-22 07:22:00,
2013-04-22 02:27:00,49.6,31.3,29.59,East,100,3.4,6.6,49,0.00,,---,0.00,VWS V14.00,2013-04-22 07:27:00,
2013-04-22 02:32:00,49.6,31.3,29.59,East,98,4.0,7.4,49,0.00,,---,0.00,VWS V14.00,2013-04-22 07:32:00,
2013-04-22 02:37:00,49.5,31.1,29.59,ESE,106,4.0,6.6,49,0.00,,---,0.00,VWS V14.00,2013-04-22 07:37:00,
2013-04-22 02:42:00,49.5,31.1,29.59,ESE,111,0.0,6.6,49,0.00,,---,0.00,VWS V14.00,2013-04-22 07:42:00,
2013-04-22 02:47:00,49.6,31.3,29.59,ESE,102,4.0,5.8,49,0.00,,---,0.00,VWS V14.00,2013-04-22 07:47:00,
2013-04-22 02:52:00,49.6,31.3,29.59,ESE,102,6.0,11.5,49,0.00,,---,0.00,VWS V14.00,2013-04-22 07:52:00,
2013-04-22 02:57:00,49.5,31.1,29.59,East,100,3.4,5.8,49,0.00,,---,0.00,VWS V14.00,2013-04-22 07:57:00,
2013-04-22 03:02:00,49.5,31.1,29.59,East,98,4.0,5.8,49,0.00,,---,0.00,VWS V14.00,2013-04-22 08:02:00,
2013-04-22 03:07:00,49.3,31.0,29.59,East,92,4.0,5.8,49,0.00,,---,0.00,VWS V14.00,2013-04-22 08:07:00,
2013-04-22 03:12:00,49.1,30.8,29.59,East,97,4.0,5.8,49,0.00,,---,0.00,VWS V14.00,2013-04-22 08:12:00,
2013-04-22 03:17:00,49.1,30.8,29.59,East,101,4.0,5.8,49,0.00,,---,0.00,VWS V14.00,2013-04-22 08:17:00,
2013-04-22 03:22:00,48.9,30.6,29.59,East,94,4.7,6.6,49,0.00,,---,0.00,VWS V14.00,2013-04-22 08:22:00,
2013-04-22 03:27:00,48.7,30.5,29.59,East,99,3.4,6.6,49,0.00,,---,0.00,VWS V14.00,2013-04-22 08:27:00,
2013-04-22 03:32:00,48.7,30.5,29.59,East,85,3.4,5.0,49,0.00,,---,0.00,VWS V14.00,2013-04-22 08:32:00,
2013-04-22 03:37:00,48.6,30.3,29.59,East,100,4.7,6.6,49,0.00,,---,0.00,VWS V14.00,2013-04-22 08:37:00,
2013-04-22 03:42:00,48.6,30.8,29.59,ESE,105,4.7,6.6,50,0.00,,---,0.00,VWS V14.00,2013-04-22 08:42:00,
2013-04-22 03:47:00,48.4,30.6,29.59,ESE,102,4.0,5.8,50,0.00,,---,0.00,VWS V14.00,2013-04-22 08:47:00,
2013-04-22 03:52:00,48.2,30.5,29.59,East,97,4.0,5.8,50,0.00,,---,0.00,VWS V14.00,2013-04-22 08:52:00,
2013-04-22 03:57:00,48.2,30.5,29.59,East,92,4.0,8.2,50,0.00,,---,0.00,VWS V14.00,2013-04-22 08:57:00,
2013-04-22 04:02:00,48.0,30.3,29.59,East,92,0.0,1.0,50,0.00,,---,0.00,VWS V14.00,2013-04-22 09:02:00,
2013-04-22 04:07:00,48.0,30.8,29.59,East,92,4.0,5.8,51,0.00,,---,0.00,VWS V14.00,2013-04-22 09:07:00,
2013-04-22 04:12:00,47.7,30.4,29.59,East,92,0.0,1.0,51,0.00,,---,0.00,VWS V14.00,2013-04-22 09:12:00,
2013-04-22 04:17:00,47.7,30.4,29.59,East,99,3.4,5.0,51,0.00,,---,0.00,VWS V14.00,2013-04-22 09:17:00,
2013-04-22 04:22:00,47.5,30.3,29.59,East,99,4.0,7.4,51,0.00,,---,0.00,VWS V14.00,2013-04-22 09:22:00,
2013-04-22 04:27:00,47.5,30.8,29.59,ESE,104,4.7,6.6,52,0.00,,---,0.00,VWS V14.00,2013-04-22 09:27:00,
2013-04-22 04:32:00,47.5,30.8,29.59,East,93,0.0,6.6,52,0.00,,---,0.00,VWS V14.00,2013-04-22 09:32:00,
2013-04-22 04:37:00,47.3,30.6,29.59,ESE,105,4.0,5.8,52,0.00,,---,0.00,VWS V14.00,2013-04-22 09:37:00,
2013-04-22 04:42:00,47.3,30.6,29.59,East,96,4.7,6.6,52,0.00,,---,0.00,VWS V14.00,2013-04-22 09:42:00,
2013-04-22 04:47:00,47.1,30.9,29.59,East,88,4.7,6.6,53,0.00,,---,0.00,VWS V14.00,2013-04-22 09:47:00,
2013-04-22 04:52:00,46.9,30.7,29.59,East,91,0.0,1.0,53,0.00,,---,0.00,VWS V14.00,2013-04-22 09:52:00,
2013-04-22 04:57:00,46.9,30.7,29.59,East,92,0.0,1.0,53,0.00,,---,0.00,VWS V14.00,2013-04-22 09:57:00,
2013-04-22 05:02:00,46.9,30.7,29.59,East,98,4.0,5.8,53,0.00,,---,0.00,VWS V14.00,2013-04-22 10:02:00,
2013-04-22 05:07:00,46.9,30.7,29.59,East,98,0.0,1.0,53,0.00,,---,0.00,VWS V14.00,2013-04-22 10:07:00,
2013-04-22 05:12:00,46.8,31.0,29.59,East,98,0.0,5.0,54,0.00,,---,0.00,VWS V14.00,2013-04-22 10:12:00,
2013-04-22 05:17:00,46.6,30.8,29.59,East,98,0.0,5.0,54,0.00,,---,0.00,VWS V14.00,2013-04-22 10:17:00,
2013-04-22 05:22:00,46.6,30.8,29.59,ESE,114,3.4,5.0,54,0.00,,---,0.00,VWS V14.00,2013-04-22 10:22:00,
2013-04-22 05:27:00,46.4,31.1,29.59,ESE,116,4.0,5.8,55,0.00,,---,0.00,VWS V14.00,2013-04-22 10:27:00,
2013-04-22 05:32:00,46.2,31.4,29.59,ESE,110,3.4,7.4,56,0.00,,---,0.00,VWS V14.00,2013-04-22 10:32:00,
2013-04-22 05:37:00,45.7,31.3,29.59,ESE,114,3.4,5.8,57,0.00,,---,0.00,VWS V14.00,2013-04-22 10:37:00,
2013-04-22 05:42:00,45.7,31.3,29.59,ESE,112,0.0,6.6,57,0.00,,---,0.00,VWS V14.00,2013-04-22 10:42:00,
2013-04-22 05:47:00,45.7,31.3,29.59,SE,127,4.0,5.8,57,0.00,,---,0.00,VWS V14.00,2013-04-22 10:47:00,
2013-04-22 05:52:00,45.7,31.8,29.59,ESE,106,0.0,1.0,58,0.00,,---,0.00,VWS V14.00,2013-04-22 10:52:00,
2013-04-22 05:57:00,45.7,31.8,29.59,ESE,115,0.0,5.8,58,0.00,,---,0.00,VWS V14.00,2013-04-22 10:57:00,
2013-04-22 06:02:00,45.7,31.8,29.59,ESE,114,0.0,1.0,58,0.00,,---,0.00,VWS V14.00,2013-04-22 11:02:00,
2013-04-22 06:07:00,45.7,31.8,29.59,ESE,111,4.0,5.8,58,0.00,,---,0.00,VWS V14.00,2013-04-22 11:07:00,
2013-04-22 06:12:00,45.7,31.8,29.59,ESE,109,0.0,5.8,58,0.00,,---,0.00,VWS V14.00,2013-04-22 11:12:00,
2013-04-22 06:17:00,45.5,31.6,29.59,ESE,111,0.0,1.0,58,0.00,,---,0.00,VWS V14.00,2013-04-22 11:17:00,
2013-04-22 06:22:00,45.5,32.0,29.59,ESE,110,0.0,5.8,59,0.00,,---,0.00,VWS V14.00,2013-04-22 11:22:00,
2013-04-22 06:27:00,45.5,32.4,29.59,ESE,109,4.0,5.8,60,0.00,,---,0.00,VWS V14.00,2013-04-22 11:27:00,
2013-04-22 06:32:00,45.7,32.6,29.59,ESE,110,0.0,5.8,60,0.00,,---,0.00,VWS V14.00,2013-04-22 11:32:00,
2013-04-22 06:37:00,45.7,33.0,29.59,SE,124,4.0,7.4,61,0.00,,---,0.00,VWS V14.00,2013-04-22 11:37:00,
2013-04-22 06:42:00,45.7,33.0,29.59,SSE,151,5.4,7.4,61,0.00,,---,0.00,VWS V14.00,2013-04-22 11:42:00,
2013-04-22 06:47:00,45.9,33.2,29.59,SSE,159,4.7,7.4,61,0.00,,---,0.00,VWS V14.00,2013-04-22 11:47:00,
2013-04-22 06:52:00,46.2,33.5,29.59,SSE,147,4.7,8.2,61,0.00,,---,0.00,VWS V14.00,2013-04-22 11:52:00,
2013-04-22 06:57:00,46.4,33.7,29.59,SE,143,4.7,7.4,61,0.00,,---,0.00,VWS V14.00,2013-04-22 11:57:00,
2013-04-22 07:02:00,46.8,34.0,29.59,SE,140,4.7,6.6,61,0.00,,---,0.00,VWS V14.00,2013-04-22 12:02:00,
2013-04-22 07:07:00,47.1,34.4,29.59,SE,144,4.0,6.6,61,0.00,,---,0.00,VWS V14.00,2013-04-22 12:07:00,
2013-04-22 07:12:00,47.7,34.9,29.59,SE,139,6.0,8.2,61,0.00,,---,0.00,VWS V14.00,2013-04-22 12:12:00,
2013-04-22 07:17:00,48.0,35.2,29.59,SE,142,4.0,5.8,61,0.00,,---,0.00,VWS V14.00,2013-04-22 12:17:00,
2013-04-22 07:22:00,48.2,35.4,29.59,SE,143,4.7,8.2,61,0.00,,---,0.00,VWS V14.00,2013-04-22 12:22:00,
2013-04-22 07:27:00,48.7,35.9,29.59,SE,135,4.7,6.6,61,0.00,,---,0.00,VWS V14.00,2013-04-22 12:27:00,
2013-04-22 07:32:00,49.5,36.2,29.59,SE,138,4.7,6.6,60,0.00,,---,0.00,VWS V14.00,2013-04-22 12:32:00,
2013-04-22 07:37:00,50.0,36.7,29.59,SE,138,4.0,5.8,60,0.00,,---,0.00,VWS V14.00,2013-04-22 12:37:00,
2013-04-22 07:42:00,50.5,37.2,29.59,SE,139,6.0,8.2,60,0.00,,---,0.00,VWS V14.00,2013-04-22 12:42:00,
2013-04-22 07:47:00,51.3,37.4,29.59,SE,141,9.4,12.3,59,0.00,,---,0.00,VWS V14.00,2013-04-22 12:47:00,
2013-04-22 07:52:00,51.3,37.4,29.59,SE,138,5.4,7.4,59,0.00,,---,0.00,VWS V14.00,2013-04-22 12:52:00,
2013-04-22 07:57:00,52.5,37.7,29.59,SSE,159,7.4,10.7,57,0.00,,---,0.00,VWS V14.00,2013-04-22 12:57:00,
2013-04-22 08:02:00,53.1,37.3,29.59,SSE,160,8.7,11.5,55,0.00,,---,0.00,VWS V14.00,2013-04-22 13:02:00,
2013-04-22 08:07:00,53.2,38.0,29.59,SE,128,6.0,8.2,56,0.00,,---,0.00,VWS V14.00,2013-04-22 13:07:00,
2013-04-22 08:12:00,54.1,37.9,29.59,SSE,155,6.0,8.2,54,0.00,,---,0.00,VWS V14.00,2013-04-22 13:12:00,
2013-04-22 08:17:00,54.5,38.2,29.59,SSE,163,6.0,8.2,54,0.00,,---,0.00,VWS V14.00,2013-04-22 13:17:00,
2013-04-22 08:22:00,55.2,38.9,29.59,SSE,150,9.4,12.3,54,0.00,,---,0.00,VWS V14.00,2013-04-22 13:22:00,
2013-04-22 08:27:00,55.8,38.9,29.59,SSE,155,8.7,11.5,53,0.00,,---,0.00,VWS V14.00,2013-04-22 13:27:00,
2013-04-22 08:32:00,56.3,38.9,29.59,SSE,147,12.4,15.9,52,0.00,,---,0.00,VWS V14.00,2013-04-22 13:32:00,
2013-04-22 08:37:00,57.0,39.6,29.59,SSE,156,7.4,9.9,52,0.00,,---,0.00,VWS V14.00,2013-04-22 13:37:00,
2013-04-22 08:42:00,57.6,39.6,29.59,South,182,8.1,10.7,51,0.00,,---,0.00,VWS V14.00,2013-04-22 13:42:00,
2013-04-22 08:47:00,57.7,39.8,29.59,South,185,4.7,6.6,51,0.00,,---,0.00,VWS V14.00,2013-04-22 13:47:00,
2013-04-22 08:52:00,58.1,40.1,29.59,SSE,165,9.4,12.3,51,0.00,,---,0.00,VWS V14.00,2013-04-22 13:52:00,
2013-04-22 08:57:00,58.5,39.9,29.59,SSW,206,9.4,12.3,50,0.00,,---,0.00,VWS V14.00,2013-04-22 13:57:00,
2013-04-22 09:02:00,58.8,39.7,29.59,SSE,156,9.4,12.3,49,0.00,,---,0.00,VWS V14.00,2013-04-22 14:02:00,
2013-04-22 09:07:00,58.8,39.7,29.59,SSE,159,12.1,15.5,49,0.00,,---,0.00,VWS V14.00,2013-04-22 14:07:00,
2013-04-22 09:12:00,58.8,39.7,29.59,SSE,152,8.1,10.7,49,0.00,,---,0.00,VWS V14.00,2013-04-22 14:12:00,
2013-04-22 09:17:00,59.9,40.7,29.59,South,185,8.7,11.5,49,0.00,,---,0.00,VWS V14.00,2013-04-22 14:17:00,
2013-04-22 09:22:00,60.3,40.5,29.59,South,171,5.4,7.4,48,0.00,,---,0.00,VWS V14.00,2013-04-22 14:22:00,
2013-04-22 09:27:00,60.6,40.3,29.59,SSE,168,13.1,16.7,47,0.00,,---,0.00,VWS V14.00,2013-04-22 14:27:00,
2013-04-22 09:32:00,60.8,40.5,29.59,South,187,12.1,15.5,47,0.00,,---,0.00,VWS V14.00,2013-04-22 14:32:00,
2013-04-22 09:37:00,61.3,41.0,29.59,SE,146,8.7,11.5,47,0.00,,---,0.00,VWS V14.00,2013-04-22 14:37:00,
2013-04-22 09:42:00,61.7,41.3,29.59,South,175,8.7,11.5,47,0.00,,---,0.00,VWS V14.00,2013-04-22 14:42:00,
2013-04-22 09:47:00,61.7,41.3,29.59,SSW,205,10.1,13.1,47,0.00,,---,0.00,VWS V14.00,2013-04-22 14:47:00,
2013-04-22 09:52:00,61.9,40.9,29.59,South,172,7.4,9.9,46,0.00,,---,0.00,VWS V14.00,2013-04-22 14:52:00,
2013-04-22 09:57:00,61.9,40.9,29.59,SW,222,8.1,10.7,46,0.00,,---,0.00,VWS V14.00,2013-04-22 14:57:00,
2013-04-22 10:02:00,62.6,41.5,29.59,South,180,8.7,11.5,46,0.00,,---,0.00,VWS V14.00,2013-04-22 15:02:00,
2013-04-22 10:07:00,62.8,41.7,29.59,South,187,4.7,6.6,46,0.00,,---,0.00,VWS V14.00,2013-04-22 15:07:00,
2013-04-22 10:12:00,63.1,41.5,29.59,SSE,167,8.7,11.5,45,0.00,,---,0.00,VWS V14.00,2013-04-22 15:12:00,
2013-04-22 10:17:00,63.3,41.6,29.59,SSW,209,4.0,5.8,45,0.00,,---,0.00,VWS V14.00,2013-04-22 15:17:00,
2013-04-22 10:22:00,63.3,41.6,29.59,SSE,162,11.4,16.7,45,0.00,,---,0.00,VWS V14.00,2013-04-22 15:22:00,
2013-04-22 10:27:00,63.9,42.1,29.59,South,172,4.0,5.8,45,0.00,,---,0.00,VWS V14.00,2013-04-22 15:27:00,
2013-04-22 10:32:00,64.4,42.6,29.59,SE,130,7.4,14.7,45,0.00,,---,0.00,VWS V14.00,2013-04-22 15:32:00,
2013-04-22 10:37:00,64.8,41.8,29.59,SW,216,8.1,10.7,43,0.00,,---,0.00,VWS V14.00,2013-04-22 15:37:00,
2013-04-22 10:42:00,64.8,43.0,29.59,SSE,156,8.1,11.5,45,0.00,,---,0.00,VWS V14.00,2013-04-22 15:42:00,
2013-04-22 10:47:00,64.9,41.9,29.59,South,183,8.7,11.5,43,0.00,,---,0.00,VWS V14.00,2013-04-22 15:47:00,
2013-04-22 10:52:00,65.3,42.8,29.59,South,173,7.4,9.9,44,0.00,,---,0.00,VWS V14.00,2013-04-22 15:52:00,
2013-04-22 10:57:00,65.3,42.2,29.59,SSE,157,4.0,8.2,43,0.00,,---,0.00,VWS V14.00,2013-04-22 15:57:00,
2013-04-22 11:02:00,65.5,42.4,29.59,SSE,158,5.4,7.4,43,0.00,,---,0.00,VWS V14.00,2013-04-22 16:02:00,
2013-04-22 11:07:00,65.7,42.6,29.59,South,172,8.1,15.9,43,0.00,,---,0.00,VWS V14.00,2013-04-22 16:07:00,
2013-04-22 11:12:00,66.0,42.9,29.59,SE,142,5.4,7.4,43,0.00,,---,0.00,VWS V14.00,2013-04-22 16:12:00,
2013-04-22 11:17:00,66.2,43.1,29.59,SSE,159,12.4,15.9,43,0.00,,---,0.00,VWS V14.00,2013-04-22 16:17:00,
2013-04-22 11:22:00,66.7,42.9,29.59,South,175,8.1,11.5,42,0.00,,---,0.00,VWS V14.00,2013-04-22 16:22:00,
2013-04-22 11:27:00,66.7,42.3,29.59,SSW,210,6.0,8.2,41,0.00,,---,0.00,VWS V14.00,2013-04-22 16:27:00,
2013-04-22 11:32:00,66.9,42.5,29.59,South,187,12.4,15.9,41,0.00,,---,0.00,VWS V14.00,2013-04-22 16:32:00,
2013-04-22 11:37:00,67.1,42.6,29.59,South,189,4.0,7.4,41,0.00,,---,0.00,VWS V14.00,2013-04-22 16:37:00,
2013-04-22 11:42:00,67.8,43.3,29.59,SSW,209,8.1,10.7,41,0.00,,---,0.00,VWS V14.00,2013-04-22 16:42:00,
2013-04-22 11:47:00,68.0,43.5,29.56,SSE,159,8.7,11.5,41,0.00,,---,0.00,VWS V14.00,2013-04-22 16:47:00,
2013-04-22 11:52:00,68.5,43.9,29.56,West,262,4.7,7.4,41,0.00,,---,0.00,VWS V14.00,2013-04-22 16:52:00,
2013-04-22 11:57:00,68.4,42.5,29.56,SW,222,4.0,5.8,39,0.00,,---,0.00,VWS V14.00,2013-04-22 16:57:00,
2013-04-22 12:02:00,68.5,42.6,29.56,SSE,156,6.0,8.2,39,0.00,,---,0.00,VWS V14.00,2013-04-22 17:02:00,
2013-04-22 12:07:00,68.9,43.6,29.56,SSE,156,6.0,8.2,40,0.00,,---,0.00,VWS V14.00,2013-04-22 17:07:00,
2013-04-22 12:12:00,69.1,43.1,29.56,SSW,208,0.0,1.0,39,0.00,,---,0.00,VWS V14.00,2013-04-22 17:12:00,
2013-04-22 12:17:00,69.6,44.9,29.56,East,96,0.0,6.6,41,0.00,,---,0.00,VWS V14.00,2013-04-22 17:17:00,
2013-04-22 12:22:00,69.8,43.1,29.56,SSE,158,5.4,7.4,38,0.00,,---,0.00,VWS V14.00,2013-04-22 17:22:00,
2013-04-22 12:27:00,70.2,43.4,29.56,SSE,163,7.4,9.9,38,0.00,,---,0.00,VWS V14.00,2013-04-22 17:27:00,
2013-04-22 12:32:00,70.2,43.4,29.56,SE,137,4.7,6.6,38,0.00,,---,0.00,VWS V14.00,2013-04-22 17:32:00,
2013-04-22 12:37:00,70.2,42.7,29.56,South,174,8.1,10.7,37,0.00,,---,0.00,VWS V14.00,2013-04-22 17:37:00,
2013-04-22 12:42:00,70.3,42.9,29.56,SSW,213,0.0,6.6,37,0.00,,---,0.00,VWS V14.00,2013-04-22 17:42:00,
2013-04-22 12:47:00,70.3,42.9,29.53,SSE,155,5.4,7.4,37,0.00,,---,0.00,VWS V14.00,2013-04-22 17:47:00,
2013-04-22 12:52:00,70.9,43.3,29.53,SSE,148,8.1,10.7,37,0.00,,---,0.00,VWS V14.00,2013-04-22 17:52:00,
2013-04-22 12:57:00,70.7,42.5,29.53,SE,142,15.8,19.9,36,0.00,,---,0.00,VWS V14.00,2013-04-22 17:57:00,
2013-04-22 13:02:00,70.5,42.3,29.53,SSE,157,5.4,7.4,36,0.00,,---,0.00,VWS V14.00,2013-04-22 18:02:00,
2013-04-22 13:07:00,70.7,42.5,29.53,SE,140,6.0,8.2,36,0.00,,---,0.00,VWS V14.00,2013-04-22 18:07:00,
2013-04-22 13:12:00,70.3,41.4,29.53,SSE,166,13.1,16.7,35,0.00,,---,0.00,VWS V14.00,2013-04-22 18:12:00,
2013-04-22 13:17:00,70.9,42.6,29.53,South,180,9.4,12.3,36,0.00,,---,0.00,VWS V14.00,2013-04-22 18:17:00,
2013-04-22 13:22:00,71.6,42.5,29.53,SSE,150,0.0,1.0,35,0.00,,---,0.00,VWS V14.00,2013-04-22 18:22:00,
2013-04-22 13:27:00,72.9,43.6,29.53,SSE,167,0.0,1.0,35,0.00,,---,0.00,VWS V14.00,2013-04-22 18:27:00,
2013-04-22 13:32:00,73.0,44.5,29.53,South,181,6.0,8.2,36,0.00,,---,0.00,VWS V14.00,2013-04-22 18:32:00,
2013-04-22 13:37:00,74.1,44.0,29.53,South,181,4.7,6.6,34,0.00,,---,0.00,VWS V14.00,2013-04-22 18:37:00,
2013-04-22 13:42:00,74.1,44.0,29.53,SE,132,8.1,10.7,34,0.00,,---,0.00,VWS V14.00,2013-04-22 18:42:00,
2013-04-22 13:47:00,74.1,44.0,29.53,South,191,4.0,6.6,34,0.00,,---,0.00,VWS V14.00,2013-04-22 18:47:00,
2013-04-22 13:52:00,73.9,43.8,29.50,SW,222,7.4,9.9,34,0.00,,---,0.00,VWS V14.00,2013-04-22 18:52:00,
2013-04-22 13:57:00,73.8,43.7,29.50,East,100,0.0,1.0,34,0.00,,---,0.00,VWS V14.00,2013-04-22 18:57:00,
2013-04-22 14:02:00,74.3,43.4,29.50,SSE,151,9.4,12.3,33,0.00,,---,0.00,VWS V14.00,2013-04-22 19:02:00,
2013-04-22 14:07:00,73.9,43.0,29.50,SSW,193,7.4,9.9,33,0.00,,---,0.00,VWS V14.00,2013-04-22 19:07:00,
2013-04-22 14:12:00,74.3,43.4,29.50,South,184,8.1,10.7,33,0.00,,---,0.00,VWS V14.00,2013-04-22 19:12:00,
2013-04-22 14:17:00,73.8,42.9,29.50,SSE,149,8.7,15.5,33,0.00,,---,0.00,VWS V14.00,2013-04-22 19:17:00,
2013-04-22 14:22:00,73.8,42.9,29.50,South,188,4.7,6.6,33,0.00,,---,0.00,VWS V14.00,2013-04-22 19:22:00,
2013-04-22 14:28:00,73.8,43.7,29.50,SE,140,11.4,14.7,34,0.00,,---,0.00,VWS V14.00,2013-04-22 19:28:00,
2013-04-22 14:33:00,73.8,42.9,29.50,South,170,9.4,12.3,33,0.00,,---,0.00,VWS V14.00,2013-04-22 19:33:00,
2013-04-22 14:38:00,73.2,43.2,29.50,SE,130,5.4,9.9,34,0.00,,---,0.00,VWS V14.00,2013-04-22 19:38:00,
2013-04-22 14:43:00,72.5,42.6,29.50,South,179,0.0,5.8,34,0.00,,---,0.00,VWS V14.00,2013-04-22 19:43:00,
2013-04-22 14:48:00,72.9,42.9,29.50,SSE,157,5.4,10.7,34,0.00,,---,0.00,VWS V14.00,2013-04-22 19:48:00,
2013-04-22 14:53:00,72.9,42.9,29.47,South,181,9.4,12.3,34,0.00,,---,0.00,VWS V14.00,2013-04-22 19:53:00,
2013-04-22 14:58:00,73.4,42.6,29.47,South,189,7.4,12.3,33,0.00,,---,0.00,VWS V14.00,2013-04-22 19:58:00,
2013-04-22 15:03:00,72.9,42.1,29.47,SE,145,5.4,9.9,33,0.00,,---,0.00,VWS V14.00,2013-04-22 20:03:00,
2013-04-22 15:08:00,72.7,42.0,29.47,ESE,114,7.4,15.5,33,0.00,,---,0.00,VWS V14.00,2013-04-22 20:08:00,
2013-04-22 15:13:00,72.1,41.5,29.47,SSE,158,9.4,12.3,33,0.00,,---,0.00,VWS V14.00,2013-04-22 20:13:00,
2013-04-22 15:18:00,72.3,41.6,29.47,South,178,8.7,11.5,33,0.00,,---,0.00,VWS V14.00,2013-04-22 20:18:00,
2013-04-22 15:23:00,72.5,42.6,29.47,SE,144,5.4,7.4,34,0.00,,---,0.00,VWS V14.00,2013-04-22 20:23:00,
2013-04-22 15:28:00,73.2,43.2,29.47,South,187,7.4,10.7,34,0.00,,---,0.00,VWS V14.00,2013-04-22 20:28:00,
2013-04-22 15:33:00,74.3,43.4,29.47,South,183,8.1,10.7,33,0.00,,---,0.00,VWS V14.00,2013-04-22 20:33:00,
2013-04-22 15:38:00,74.7,43.7,29.47,SSE,166,4.7,6.6,33,0.00,,---,0.00,VWS V14.00,2013-04-22 20:38:00,
2013-04-22 15:43:00,74.8,43.0,29.47,SE,136,5.4,7.4,32,0.00,,---,0.00,VWS V14.00,2013-04-22 20:43:00,
2013-04-22 15:48:00,74.7,43.7,29.44,SE,142,9.4,12.3,33,0.00,,---,0.00,VWS V14.00,2013-04-22 20:48:00,
2013-04-22 15:53:00,73.0,42.3,29.44,East,95,5.4,7.4,33,0.00,,---,0.00,VWS V14.00,2013-04-22 20:53:00,
2013-04-22 15:58:00,72.9,42.1,29.44,SSE,166,8.1,10.7,33,0.00,,---,0.00,VWS V14.00,2013-04-22 20:58:00,
2013-04-22 16:03:00,72.7,41.2,29.44,SSE,152,9.4,12.3,32,0.00,,---,0.00,VWS V14.00,2013-04-22 21:03:00,
2013-04-22 16:08:00,72.9,42.1,29.44,SSE,166,7.4,9.9,33,0.00,,---,0.00,VWS V14.00,2013-04-22 21:08:00,
2013-04-22 16:13:00,73.4,42.6,29.44,South,185,7.4,9.9,33,0.00,,---,0.00,VWS V14.00,2013-04-22 21:13:00,
2013-04-22 16:18:00,73.9,43.0,29.44,SSE,157,5.4,8.2,33,0.00,,---,0.00,VWS V14.00,2013-04-22 21:18:00,
2013-04-22 16:23:00,74.1,43.2,29.44,SSE,166,5.4,7.4,33,0.00,,---,0.00,VWS V14.00,2013-04-22 21:23:00,
2013-04-22 16:28:00,74.5,43.5,29.44,SSE,165,0.0,1.0,33,0.00,,---,0.00,VWS V14.00,2013-04-22 21:28:00,
2013-04-22 16:33:00,74.5,42.7,29.44,South,172,6.0,8.2,32,0.00,,---,0.00,VWS V14.00,2013-04-22 21:33:00,
2013-04-22 16:38:00,74.7,43.7,29.44,South,171,0.0,1.0,33,0.00,,---,0.00,VWS V14.00,2013-04-22 21:38:00,
2013-04-22 16:43:00,74.5,43.5,29.44,SSE,168,7.4,9.9,33,0.00,,---,0.00,VWS V14.00,2013-04-22 21:43:00,
2013-04-22 16:48:00,74.3,41.7,29.44,South,177,0.0,10.7,31,0.00,,---,0.00,VWS V14.00,2013-04-22 21:48:00,
2013-04-22 16:53:00,74.3,42.6,29.44,SSE,165,8.1,10.7,32,0.00,,---,0.00,VWS V14.00,2013-04-22 21:53:00,
2013-04-22 16:58:00,74.1,42.4,29.44,SSE,160,11.4,14.7,32,0.00,,---,0.00,VWS V14.00,2013-04-22 21:58:00,
2013-04-22 17:03:00,73.4,40.1,29.44,SSE,158,8.7,11.5,30,0.00,,---,0.00,VWS V14.00,2013-04-22 22:03:00,
2013-04-22 17:08:00,73.0,41.5,29.44,SSW,197,0.0,1.0,32,0.00,,---,0.00,VWS V14.00,2013-04-22 22:08:00,
2013-04-22 17:13:00,72.9,42.1,29.44,South,178,8.1,11.5,33,0.00,,---,0.00,VWS V14.00,2013-04-22 22:13:00,
2013-04-22 17:18:00,72.9,42.1,29.44,South,181,3.4,5.0,33,0.00,,---,0.00,VWS V14.00,2013-04-22 22:18:00,
2013-04-22 17:23:00,73.4,41.8,29.41,SSE,153,11.4,14.7,32,0.00,,---,0.00,VWS V14.00,2013-04-22 22:23:00,
2013-04-22 17:28:00,73.4,41.8,29.41,SSE,155,7.4,9.9,32,0.00,,---,0.00,VWS V14.00,2013-04-22 22:28:00,
2013-04-22 17:33:00,73.2,41.6,29.41,South,181,11.4,16.7,32,0.00,,---,0.00,VWS V14.00,2013-04-22 22:33:00,
2013-04-22 17:38:00,73.0,41.5,29.41,South,182,8.1,10.7,32,0.00,,---,0.00,VWS V14.00,2013-04-22 22:38:00,
2013-04-22 17:43:00,73.2,42.4,29.41,SSW,210,5.4,9.9,33,0.00,,---,0.00,VWS V14.00,2013-04-22 22:43:00,
2013-04-22 17:48:00,73.4,42.6,29.41,SE,140,9.4,12.3,33,0.00,,---,0.00,VWS V14.00,2013-04-22 22:48:00,
2013-04-22 17:53:00,73.4,41.8,29.41,SSE,166,8.1,10.7,32,0.00,,---,0.00,VWS V14.00,2013-04-22 22:53:00,
2013-04-22 17:58:00,72.9,42.1,29.41,SSE,166,4.7,6.6,33,0.00,,---,0.00,VWS V14.00,2013-04-22 22:58:00,
2013-04-22 18:03:00,72.7,42.0,29.41,South,183,4.7,6.6,33,0.00,,---,0.00,VWS V14.00,2013-04-22 23:03:00,
2013-04-22 18:08:00,72.3,41.6,29.41,South,169,6.0,8.2,33,0.00,,---,0.00,VWS V14.00,2013-04-22 23:08:00,
2013-04-22 18:13:00,71.8,41.9,29.41,South,169,3.4,5.0,34,0.00,,---,0.00,VWS V14.00,2013-04-22 23:13:00,
2013-04-22 18:18:00,71.4,41.6,29.41,SSE,160,4.0,5.8,34,0.00,,---,0.00,VWS V14.00,2013-04-22 23:18:00,
2013-04-22 18:23:00,70.9,41.1,29.41,South,179,6.0,8.2,34,0.00,,---,0.00,VWS V14.00,2013-04-22 23:23:00,
2013-04-22 18:28:00,70.7,41.0,29.41,SSE,155,5.4,7.4,34,0.00,,---,0.00,VWS V14.00,2013-04-22 23:28:00,
2013-04-22 18:33:00,70.7,41.0,29.41,SSE,158,4.7,12.3,34,0.00,,---,0.00,VWS V14.00,2013-04-22 23:33:00,
2013-04-22 18:38:00,70.7,41.0,29.41,SSE,168,4.7,6.6,34,0.00,,---,0.00,VWS V14.00,2013-04-22 23:38:00,
2013-04-22 18:43:00,70.7,41.0,29.41,SSE,159,4.0,5.8,34,0.00,,---,0.00,VWS V14.00,2013-04-22 23:43:00,
2013-04-22 18:48:00,69.8,40.2,29.41,SE,145,3.4,5.0,34,0.00,,---,0.00,VWS V14.00,2013-04-22 23:48:00,
2013-04-22 18:53:00,69.4,40.6,29.41,SSE,151,0.0,1.0,35,0.00,,---,0.00,VWS V14.00,2013-04-22 23:53:00,
2013-04-22 18:58:00,68.9,40.2,29.41,South,169,0.0,1.0,35,0.00,,---,0.00,VWS V14.00,2013-04-22 23:58:00,
2013-04-22 19:03:00,68.0,40.1,29.41,SSE,164,0.0,1.0,36,0.00,,---,0.00,VWS V14.00,2013-04-23 00:03:00,
2013-04-22 19:08:00,67.3,40.1,29.41,SSE,164,0.0,1.0,37,0.00,,---,0.00,VWS V14.00,2013-04-23 00:08:00,
2013-04-22 19:13:00,66.7,39.7,29.41,SSE,164,0.0,1.0,37,0.00,,---,0.00,VWS V14.00,2013-04-23 00:13:00,
2013-04-22 19:18:00,66.6,39.5,29.41,SSE,164,0.0,1.0,37,0.00,,---,0.00,VWS V14.00,2013-04-23 00:18:00,
2013-04-22 19:23:00,66.2,39.9,29.41,SSE,164,0.0,1.0,38,0.00,,---,0.00,VWS V14.00,2013-04-23 00:23:00,
2013-04-22 19:28:00,66.0,39.7,29.41,SSE,163,4.0,5.8,38,0.00,,---,0.00,VWS V14.00,2013-04-23 00:28:00,
2013-04-22 19:33:00,66.0,39.7,29.41,SSE,152,4.0,5.8,38,0.00,,---,0.00,VWS V14.00,2013-04-23 00:33:00,
2013-04-22 19:38:00,65.1,40.2,29.41,SSE,152,0.0,1.0,40,0.00,,---,0.00,VWS V14.00,2013-04-23 00:38:00,
2013-04-22 19:43:00,64.8,39.9,29.41,SSE,152,0.0,1.0,40,0.00,,---,0.00,VWS V14.00,2013-04-23 00:43:00,
2013-04-22 19:48:00,64.4,41.4,29.41,SSE,152,0.0,1.0,43,0.00,,---,0.00,VWS V14.00,2013-04-23 00:48:00,
2013-04-22 19:53:00,64.0,41.7,29.41,SSE,152,0.0,1.0,44,0.00,,---,0.00,VWS V14.00,2013-04-23 00:53:00,
2013-04-22 19:58:00,63.0,42.4,29.41,SSE,152,0.0,1.0,47,0.00,,---,0.00,VWS V14.00,2013-04-23 00:58:00,
2013-04-22 20:03:00,62.6,41.5,29.41,SSE,152,0.0,1.0,46,0.00,,---,0.00,VWS V14.00,2013-04-23 01:03:00,
2013-04-22 20:08:00,62.2,41.8,29.41,SSE,152,0.0,1.0,47,0.00,,---,0.00,VWS V14.00,2013-04-23 01:08:00,
2013-04-22 20:13:00,61.9,40.9,29.41,SSE,152,4.7,6.6,46,0.00,,---,0.00,VWS V14.00,2013-04-23 01:13:00,
2013-04-22 20:18:00,61.3,41.5,29.41,SSE,152,4.7,6.6,48,0.00,,---,0.00,VWS V14.00,2013-04-23 01:18:00,
2013-04-22 20:23:00,60.8,42.1,29.41,SSE,150,4.0,5.8,50,0.00,,---,0.00,VWS V14.00,2013-04-23 01:23:00,
2013-04-22 20:28:00,60.1,42.9,29.41,SSE,157,4.0,5.8,53,0.00,,---,0.00,VWS V14.00,2013-04-23 01:28:00,
2013-04-22 20:33:00,59.9,42.7,29.41,SSE,153,3.4,5.0,53,0.00,,---,0.00,VWS V14.00,2013-04-23 01:33:00,
2013-04-22 20:38:00,59.4,42.7,29.41,SSE,157,4.0,5.8,54,0.00,,---,0.00,VWS V14.00,2013-04-23 01:38:00,
2013-04-22 20:43:00,59.2,42.6,29.41,SSE,157,3.4,5.0,54,0.00,,---,0.00,VWS V14.00,2013-04-23 01:43:00,
2013-04-22 20:48:00,58.3,43.1,29.41,SSE,157,0.0,1.0,57,0.00,,---,0.00,VWS V14.00,2013-04-23 01:48:00,
2013-04-22 20:53:00,58.8,41.7,29.41,SSE,148,4.7,8.2,53,0.00,,---,0.00,VWS V14.00,2013-04-23 01:53:00,
2013-04-22 20:58:00,60.3,41.6,29.41,SSE,152,4.7,6.6,50,0.00,,---,0.00,VWS V14.00,2013-04-23 01:58:00,
2013-04-22 21:03:00,60.8,41.5,29.41,SSE,158,5.4,7.4,49,0.00,,---,0.00,VWS V14.00,2013-04-23 02:03:00,
2013-04-22 21:08:00,61.0,41.2,29.41,SSE,156,4.7,6.6,48,0.00,,---,0.00,VWS V14.00,2013-04-23 02:08:00,
2013-04-22 21:13:00,60.6,41.9,29.41,SSE,160,4.0,5.8,50,0.00,,---,0.00,VWS V14.00,2013-04-23 02:13:00,
2013-04-22 21:18:00,60.1,41.4,29.41,SSE,160,0.0,1.0,50,0.00,,---,0.00,VWS V14.00,2013-04-23 02:18:00,
2013-04-22 21:23:00,59.7,41.1,29.41,SSE,160,0.0,1.0,50,0.00,,---,0.00,VWS V14.00,2013-04-23 02:23:00,
2013-04-22 21:28:00,59.7,41.1,29.41,SSE,164,0.0,1.0,50,0.00,,---,0.00,VWS V14.00,2013-04-23 02:28:00,
2013-04-22 21:33:00,59.2,40.6,29.44,SSE,164,4.0,5.8,50,0.00,,---,0.00,VWS V14.00,2013-04-23 02:33:00,
2013-04-22 21:38:00,59.2,40.6,29.44,SSE,164,0.0,1.0,50,0.00,,---,0.00,VWS V14.00,2013-04-23 02:38:00,
2013-04-22 21:43:00,58.8,40.8,29.44,SSE,164,0.0,1.0,51,0.00,,---,0.00,VWS V14.00,2013-04-23 02:43:00,
2013-04-22 21:48:00,58.6,40.6,29.44,SSE,164,0.0,1.0,51,0.00,,---,0.00,VWS V14.00,2013-04-23 02:48:00,
2013-04-22 21:53:00,58.5,40.4,29.44,SSE,164,0.0,1.0,51,0.00,,---,0.00,VWS V14.00,2013-04-23 02:53:00,
2013-04-22 21:58:00,58.5,40.9,29.44,SSE,164,0.0,1.0,52,0.00,,---,0.00,VWS V14.00,2013-04-23 02:58:00,
2013-04-22 22:03:00,57.9,40.4,29.44,SSE,164,0.0,1.0,52,0.00,,---,0.00,VWS V14.00,2013-04-23 03:03:00,
2013-04-22 22:08:00,57.9,40.4,29.44,SSE,164,0.0,1.0,52,0.00,,---,0.00,VWS V14.00,2013-04-23 03:08:00,
2013-04-22 22:13:00,57.7,40.2,29.44,SSE,164,0.0,1.0,52,0.00,,---,0.00,VWS V14.00,2013-04-23 03:13:00,
2013-04-22 22:18:00,57.7,40.2,29.44,SSE,164,0.0,1.0,52,0.00,,---,0.00,VWS V14.00,2013-04-23 03:18:00,
2013-04-22 22:23:00,57.6,41.1,29.44,SSE,164,0.0,1.0,54,0.00,,---,0.00,VWS V14.00,2013-04-23 03:23:00,
2013-04-22 22:28:00,57.6,41.1,29.44,SSE,164,0.0,1.0,54,0.00,,---,0.00,VWS V14.00,2013-04-23 03:28:00,
2013-04-22 22:33:00,57.6,40.6,29.44,SSE,164,0.0,1.0,53,0.00,,---,0.00,VWS V14.00,2013-04-23 03:33:00,
2013-04-22 22:38:00,57.4,40.9,29.44,SSE,164,0.0,1.0,54,0.00,,---,0.00,VWS V14.00,2013-04-23 03:38:00,
2013-04-22 22:43:00,57.4,40.9,29.44,SSE,164,4.0,5.8,54,0.00,,---,0.00,VWS V14.00,2013-04-23 03:43:00,
2013-04-22 22:48:00,57.2,41.2,29.44,SSE,157,5.4,7.4,55,0.00,,---,0.00,VWS V14.00,2013-04-23 03:48:00,
2013-04-22 22:53:00,56.8,41.3,29.44,SSE,147,0.0,5.8,56,0.00,,---,0.00,VWS V14.00,2013-04-23 03:53:00,
2013-04-22 22:58:00,56.5,41.0,29.44,SSE,147,0.0,1.0,56,0.00,,---,0.00,VWS V14.00,2013-04-23 03:58:00,
2013-04-22 23:01:00,56.5,41.0,29.44,SSE,147,0.0,1.0,56,0.00,,---,0.00,VWS V14.00,2013-04-23 04:01:00,
2013-04-22 23:06:00,56.3,41.3,29.44,SSE,147,0.0,1.0,57,0.00,,---,0.00,VWS V14.00,2013-04-23 04:06:00,
2013-04-22 23:11:00,55.9,40.9,29.44,SSE,147,0.0,1.0,57,0.00,,---,0.00,VWS V14.00,2013-04-23 04:11:00,
2013-04-22 23:16:00,55.9,40.9,29.44,SSE,147,0.0,1.0,57,0.00,,---,0.00,VWS V14.00,2013-04-23 04:16:00,
2013-04-22 23:21:00,55.9,41.4,29.44,SSE,147,0.0,1.0,58,0.00,,---,0.00,VWS V14.00,2013-04-23 04:21:00,
2013-04-22 23:26:00,55.9,41.4,29.44,SSE,147,0.0,1.0,58,0.00,,---,0.00,VWS V14.00,2013-04-23 04:26:00,
2013-04-22 23:31:00,55.9,41.8,29.44,SSE,147,0.0,1.0,59,0.00,,---,0.00,VWS V14.00,2013-04-23 04:31:00,
2013-04-22 23:36:00,55.8,42.5,29.44,SSE,147,0.0,1.0,61,0.00,,---,0.00,VWS V14.00,2013-04-23 04:36:00,
2013-04-22 23:41:00,55.8,43.0,29.44,SSE,147,0.0,1.0,62,0.00,,---,0.00,VWS V14.00,2013-04-23 04:41:00,
2013-04-22 23:46:00,55.6,43.2,29.44,SSE,147,0.0,1.0,63,0.00,,---,0.00,VWS V14.00,2013-04-23 04:46:00,
2013-04-22 23:51:00,55.6,43.2,29.44,SSE,147,0.0,1.0,63,0.00,,---,0.00,VWS V14.00,2013-04-23 04:51:00,
2013-04-22 23:56:00,55.8,43.4,29.44,SSE,147,4.0,5.8,63,0.00,,---,0.00,VWS V14.00,2013-04-23 04:56:00,